EHI
0 0 0 0 0 0 0 0 0 1 2 4 5 9 13 13 12 11 12 14 14 15 16 15 16 18 19 20 25 31 34 35 36 33 30 28 27 28 27 20 15 16 15 14
0 0 0 0 0 0 0 0 0 1 3 5 6 9 11 14 14 13 14 17 18 18 18 16 17 20 21 21 25 30 34 35 36 33 29 27 29 30 28 23 19 18 16 14
0 0 0 0 0 0 0 0 0 2 5 7 8 8 10 13 15 16 17 20 21 21 19 17 18 21 23 23 25 29 31 33 33 31 29 28 29 31 30 28 26 24 21 18
0 0 0 0 0 0 0 0 2 5 8 9 9 8 9 11 14 16 19 20 20 20 18 17 17 19 22 23 25 25 26 27 28 28 29 29 29 29 30 29 28 27 25 24
0 0 0 0 0 1 1 1 4 7 10 12 11 9 9 10 13 17 20 20 17 15 16 17 16 17 19 20 23 24 23 22 23 25 27 28 28 28 28 27 26 25 24 22
0 0 0 1 1 1 2 2 4 8 12 15 14 10 11 14 17 19 19 17 14 12 14 17 17 17 17 19 21 23 22 20 20 22 25 27 28 28 27 26 26 24 22 21
0 0 0 1 1 1 2 3 5 8 13 15 14 13 16 19 21 20 17 15 12 11 12 14 17 17 17 19 21 22 22 19 19 21 24 28 29 29 27 26 26 25 24 22
0 1 1 1 2 3 4 5 6 8 10 11 12 14 18 20 21 20 17 13 12 11 10 12 15 17 17 18 20 21 21 19 19 21 24 28 30 28 27 27 26 25 25 24
1 2 2 2 3 4 4 4 5 6 7 9 11 13 15 16 17 16 14 12 11 11 12 12 13 14 16 18 21 22 21 21 21 22 24 28 28 26 25 26 25 25 25 25
3 3 3 3 3 3 2 2 2 4 6 9 11 13 14 12 11 11 9 9 9 11 13 13 11 11 13 17 20 22 22 23 23 22 23 26 26 23 23 24 24 24 24 23
2 2 3 3 2 2 1 1 1 2 4 7 9 11 11 10 8 8 7 7 8 9 12 12 10 10 12 14 17 19 20 20 20 19 19 20 21 19 18 19 19 18 19 18
1 1 1 2 1 1 0 0 1 2 3 4 6 7 7 7 7 8 7 6 6 8 10 10 10 10 11 11 11 13 15 15 15 15 13 13 16 15 12 10 8 8 9 9
0 0 0 0 0 0 0 0 0 1 2 2 3 4 4 4 5 6 5 4 5 7 8 8 9 8 8 8 8 9 11 12 12 11 10 10 13 13 9 6 5 4 3 2
0 0 0 0 0 0 0 0 0 1 1 2 2 3 3 3 4 4 3 3 3 4 6 7 8 7 7 7 7 8 9 9 9 10 10 10 12 11 9 8 8 7 4 1
0 0 0 0 0 0 0 0 0 1 2 1 1 2 2 2 2 3 3 3 3 3 5 8 9 8 7 7 7 8 7 7 7 8 10 11 10 10 8 8 8 9 7 4
0 0 0 0 0 0 0 0 0 1 2 1 0 1 1 1 1 2 4 5 4 3 5 8 9 8 8 7 7 8 7 7 6 7 8 9 9 9 7 6 6 7 7 6
0 0 0 0 0 0 0 0 0 1 1 0 0 0 0 0 0 1 4 5 4 3 4 6 6 7 8 9 9 9 8 7 6 6 7 7 7 7 7 5 5 5 6 6
0 0 0 0 0 0 0 0 0 0 0 0 0 0 0 0 0 2 3 4 3 3 3 3 4 5 7 9 9 9 8 7 6 6 6 5 5 5 4 4 4 4 5 5
0 0 0 0 0 0 0 0 0 0 0 0 0 0 0 0 0 1 3 3 3 2 2 2 2 4 5 6 7 8 7 7 6 6 5 3 2 2 2 2 2 3 4 4
0 0 0 0 0 0 0 0 0 0 0 0 0 0 0 0 0 1 2 2 1 1 0 0 1 2 4 4 4 6 6 6 6 5 4 2 1 2 2 2 2 2 2 2
0 0 0 0 0 0 0 0 0 0 0 0 0 0 0 0 0 0 1 1 0 0 0 0 0 1 2 2 2 3 4 3 3 3 2 2 2 2 2 2 2 2 2 2
0 0 0 0 0 0 0 0 0 0 0 0 0 0 0 0 0 0 0 0 0 0 0 0 0 0 1 1 1 1 1 1 1 1 1 1 1 1 1 1 1 1 1 2
0 0 0 0 0 0 0 0 0 0 0 0 0 0 0 0 0 0 0 0 0 0 0 0 0 0 0 0 0 0 0 0 1 1 2 1 0 0 0 0 0 0 0 1
0 0 0 0 0 0 0 0 0 0 0 0 0 0 0 0 0 0 0 0 0 0 0 0 0 0 0 0 0 0 0 1 2 3 3 2 0 0 0 0 0 0 0 0
0 0 0 0 0 0 0 0 0 0 0 0 0 0 0 0 0 0 0 0 0 0 0 0 0 0 0 0 0 0 0 1 2 3 2 1 0 0 0 0 0 0 0 0
0 0 0 0 0 0 0 0 0 0 0 0 0 0 0 0 0 0 0 0 0 0 0 0 0 0 0 0 0 0 0 0 1 1 1 0 0 0 0 0 0 0 0 0
0 0 0 0 0 0 0 0 0 0 0 0 0 0 0 0 0 0 0 0 0 0 0 0 0 0 0 0 0 0 0 0 0 0 0 0 0 0 0 0 0 0 0 0
Wind_Speed
9 7 8 9 9 10 12 12 12 8 7 4 3 2 2 3 3 3 3 2 3 3 4 4 4 3 3 3 3 3 4 4 4 4 4 4 4 4 4 4 4 3 3 4
10 9 9 10 10 11 11 11 10 10 7 2 1 1 2 3 3 3 3 2 2 3 3 3 3 3 3 3 4 4 4 4 3 4 4 4 4 4 4 4 4 4 4 4
10 7 10 12 9 10 8 8 9 9 4 1 2 2 2 2 3 2 2 2 2 2 2 2 2 3 3 3 4 4 3 3 3 3 4 3 4 4 4 4 4 4 4 4
8 8 13 3 2 3 5 4 3 3 1 1 1 2 2 2 2 2 2 2 2 1 2 2 3 3 3 4 4 4 3 3 3 4 4 3 3 3 3 3 3 4 4 4
8 11 9 4 1 2 5 3 2 2 0 1 2 4 4 3 2 2 2 2 2 1 1 2 2 3 3 3 4 3 3 3 3 3 3 3 3 3 3 3 3 4 3 3
8 11 10 1 3 1 5 5 2 2 1 2 4 5 3 3 2 3 2 2 2 2 2 2 2 3 3 3 3 3 2 2 2 2 2 3 3 3 3 3 3 3 3 3
10 11 4 5 2 3 7 1 4 1 1 2 2 3 4 3 3 2 2 2 2 2 2 2 1 2 2 2 2 2 2 2 2 2 3 3 3 3 3 3 3 3 3 3
8 10 3 5 1 2 4 5 3 3 1 0 2 4 4 3 3 2 2 2 2 2 1 2 1 1 1 1 1 1 2 2 2 2 2 2 3 3 3 4 4 4 4 4
4 2 5 4 3 4 4 3 3 3 2 0 2 3 3 2 2 2 2 2 1 1 1 2 1 0 0 0 0 1 2 2 2 2 2 2 3 4 4 5 4 4 4 4
2 2 2 2 2 4 4 4 4 3 2 1 2 2 2 2 2 1 2 1 1 1 1 1 1 1 1 1 1 1 2 2 2 2 3 2 3 3 4 4 4 4 4 4
3 1 1 1 2 3 3 4 3 2 1 1 1 1 1 1 1 1 1 1 1 1 1 1 1 1 1 1 1 2 2 2 3 3 2 2 3 3 4 3 3 4 4 4
2 0 2 2 2 3 2 3 3 2 1 1 1 1 1 1 1 1 1 1 2 2 2 2 2 1 1 2 2 3 3 3 3 3 2 3 3 3 2 3 3 4 5 5
3 3 3 3 3 2 2 3 3 2 1 1 1 1 0 0 0 1 1 1 2 2 2 2 2 2 2 2 3 4 4 3 4 3 3 4 4 4 4 3 4 5 6 6
2 3 3 2 2 2 2 1 2 1 1 1 0 0 0 1 1 1 2 2 2 2 2 2 2 2 2 2 3 4 4 3 4 4 4 4 4 5 5 4 4 4 5 7
3 3 3 2 1 1 1 1 1 1 1 1 0 0 1 1 2 2 2 2 2 2 2 3 3 3 3 3 3 4 4 4 4 4 4 5 5 5 5 5 5 4 3 3
3 3 3 3 2 2 1 1 2 1 1 1 1 1 2 2 2 2 2 2 3 3 3 3 4 4 3 4 4 4 4 4 5 5 5 5 5 5 5 5 5 5 4 4
5 4 4 4 3 3 3 3 3 3 2 2 2 2 3 3 3 3 3 3 3 4 4 4 4 4 4 4 5 4 4 4 5 6 6 5 5 5 5 5 5 5 5 3
5 5 4 4 4 4 3 3 3 3 3 3 3 3 3 3 4 4 4 3 4 5 5 5 5 5 5 5 5 5 5 5 5 5 5 5 5 5 5 6 6 7 5 4
3 3 3 3 3 4 4 3 3 2 2 3 3 3 3 4 4 4 4 4 5 5 5 4 5 6 5 5 5 5 6 6 5 5 5 5 6 6 6 6 6 6 5 5
2 1 2 2 2 2 2 2 2 2 2 2 2 3 3 4 4 4 4 4 4 4 5 4 5 5 5 4 5 5 6 6 5 5 5 5 5 5 5 5 6 6 6 5
1 1 1 1 2 2 2 2 2 2 2 3 3 4 4 4 4 4 4 4 4 4 4 4 4 4 4 4 5 5 5 5 5 5 5 5 5 5 5 5 5 6 6 5
1 2 2 2 2 3 2 2 2 3 3 4 4 5 5 5 5 4 4 4 4 3 4 3 3 3 4 5 4 5 5 5 5 5 5 5 5 5 5 5 5 5 5 5
2 3 3 3 3 3 3 3 3 3 4 4 5 5 5 5 5 5 4 3 4 3 4 3 4 4 6 5 4 4 5 5 5 5 5 5 5 5 5 6 5 5 4 4
2 3 3 3 3 3 4 4 4 3 4 4 4 5 5 4 4 4 4 3 3 4 4 3 3 5 6 4 4 4 4 5 5 5 5 5 5 5 5 5 4 4 4 5
3 3 3 3 4 3 4 4 4 4 4 3 3 4 4 3 4 3 3 4 3 4 4 3 4 5 5 4 4 4 4 4 4 5 5 5 4 4 4 4 4 4 4 4
3 3 3 3 4 4 4 4 3 3 3 3 2 3 3 2 3 3 3 4 4 4 4 3 3 3 3 4 4 4 4 3 4 4 4 4 4 4 4 4 5 4 4 4
3 3 3 3 3 4 3 3 3 3 3 3 3 3 3 3 3 3 4 4 3 3 3 2 2 3 3 3 4 4 4 4 4 4 4 4 4 4 4 5 5 4 4 4
Wind_Direction
259 267 258 248 243 234 242 259 268 263 262 267 258 251 185 169 174 175 169 177 174 171 159 158 157 159 167 173 167 156 162 175 172 173 169 176 181 186 186 196 200 199 209 209
245 243 246 250 247 241 242 250 256 259 260 275 7 107 163 171 174 176 171 173 175 172 162 160 160 161 156 164 160 159 167 168 160 161 167 176 182 186 186 191 202 207 216 216
248 239 245 240 239 241 235 241 251 257 264 175 177 168 165 154 150 153 163 155 150 151 144 139 147 155 160 163 156 159 162 163 164 170 179 189 194 187 193 195 202 213 220 222
249 236 245 263 14 271 247 251 278 279 278 188 167 132 114 102 116 127 137 136 136 143 145 148 146 142 148 148 151 158 161 160 166 177 179 182 188 197 204 207 210 218 220 221
244 240 240 202 116 271 247 230 3 317 147 134 149 165 138 87 64 88 91 101 117 135 136 132 139 139 146 158 154 158 161 163 165 170 174 181 193 202 204 203 209 218 217 221
241 251 251 164 71 308 244 219 59 318 236 197 203 222 138 94 76 74 72 83 95 107 110 110 124 150 152 162 162 161 167 171 172 180 189 201 207 205 197 207 212 220 209 213
244 249 256 44 38 230 235 6 38 6 314 214 212 356 80 112 108 106 97 90 95 99 90 81 107 135 143 151 167 170 172 167 177 197 205 208 208 202 204 212 211 218 211 211
250 250 242 52 88 306 17 24 14 16 18 132 93 89 104 110 108 103 92 87 89 92 80 71 80 124 147 163 175 176 174 179 183 208 232 207 205 206 210 215 211 212 217 225
299 360 60 54 48 32 12 360 360 358 0 127 125 116 113 110 100 91 78 64 61 72 78 67 59 59 194 358 181 181 185 202 210 218 228 219 214 214 216 217 229 231 228 231
234 130 88 89 54 29 16 1 356 353 342 155 123 118 119 99 83 72 71 72 61 59 57 47 16 340 315 298 258 215 216 229 234 235 237 225 234 232 232 232 236 243 245 245
227 196 200 135 31 5 5 2 354 351 333 147 128 117 97 77 64 41 27 14 342 318 336 346 323 300 282 273 260 241 242 253 254 248 248 244 245 264 259 255 264 264 265 261
265 18 282 308 340 343 347 340 336 338 349 87 106 97 84 65 50 23 349 330 304 299 306 307 292 278 284 276 260 251 248 254 259 259 251 249 246 248 265 258 240 237 249 263
309 324 315 316 323 336 325 330 334 337 345 29 59 70 74 44 355 335 317 294 282 278 283 282 278 272 269 268 259 255 257 264 272 270 260 255 256 256 255 237 218 221 229 234
282 280 274 290 310 325 320 326 331 338 357 42 44 24 6 334 317 305 307 299 291 287 287 290 290 291 292 275 266 265 266 258 265 270 270 264 259 260 259 258 252 240 217 213
250 263 273 283 290 298 295 300 334 356 15 23 11 289 288 288 285 289 297 298 297 295 299 303 301 306 304 285 275 272 273 273 272 273 269 267 262 261 261 259 258 258 253 206
254 242 238 238 243 246 255 262 279 292 296 283 273 273 275 279 279 281 281 282 285 291 298 299 295 297 292 281 274 265 259 253 262 268 263 263 261 261 261 261 258 254 250 251
243 243 241 246 254 257 264 271 276 276 277 280 285 286 285 288 285 280 278 276 281 282 282 283 286 289 284 278 275 272 273 256 242 259 261 263 265 267 269 265 264 261 258 247
252 260 264 260 258 262 267 267 266 269 273 281 282 276 278 281 283 284 284 289 288 284 284 288 293 288 277 273 272 276 273 270 265 266 268 265 267 266 268 268 267 267 267 240
242 250 255 253 256 260 264 269 274 282 287 283 276 276 279 278 277 280 282 283 281 279 286 297 290 278 274 272 274 262 265 267 267 268 272 264 258 261 262 263 264 266 268 265
236 240 248 258 263 272 276 278 282 289 296 297 292 285 281 281 283 282 277 274 281 295 300 305 294 287 283 277 273 269 268 267 268 269 269 272 270 268 269 268 268 266 264 261
271 275 281 287 296 297 290 285 286 292 298 298 293 287 283 282 276 274 274 279 292 298 293 284 283 289 287 293 268 272 272 269 265 264 266 269 273 273 273 274 274 272 269 263
299 297 301 304 304 304 301 297 293 289 293 294 290 286 283 277 272 268 268 278 289 296 283 281 289 315 305 287 277 279 277 274 270 266 265 269 274 276 274 278 279 278 274 271
313 306 304 301 302 304 302 299 292 285 286 287 286 282 278 281 283 280 281 286 290 296 286 295 314 314 298 280 282 279 276 272 270 269 267 268 270 273 273 272 274 280 284 284
302 301 296 294 293 289 290 293 289 280 276 275 272 272 273 272 269 269 280 282 284 283 284 298 289 282 271 274 277 275 272 270 268 270 271 270 267 268 273 276 279 283 283 283
293 287 285 281 277 278 281 279 272 267 268 271 276 276 271 271 277 284 290 291 285 271 279 270 250 260 268 279 279 283 281 280 283 282 275 272 273 277 279 280 281 281 283 283
281 274 273 277 286 286 281 278 278 282 283 280 282 292 294 292 290 289 284 287 288 280 283 289 281 266 277 282 286 289 289 285 279 281 287 288 288 289 290 291 290 288 286 286
260 263 257 259 262 270 275 276 280 283 285 287 291 297 300 298 296 294 293 291 287 283 286 291 300 296 289 290 288 289 289 289 289 288 287 286 289 289 292 294 293 289 286 282